Location: Pedimozza
(42.0500°N, 9.3500°E)
Time: 18:41:10
(UTC+00:00)

ADEOS Rocket - Pass Details

Date: 19 August 2019
Orbit: 859 x 1306 km, 98.7° (Epoch: 15 October)

Event Time Altitude Azimuth Distance (km) Brightness Sun altitude
Rises 20:08:51 0° 9° (N) 3,558 6.4 -19.0°
Reaches altitude 10° 20:11:12 10° 6° (N) 2,655 5.7 -19.3°
Maximum altitude 20:17:02 60° 288° (WNW) 1,135 3.6 -20.2°
Drops below altitude 10° 20:23:27 10° 210° (SSW) 2,920 5.4 -21.1°
Sets 20:26:09 0° 207° (SSW) 3,940 6.0 -21.4°
